When you browse on this site, cookies collect data to enhance your experience and personalize the content and advertising you see.
Visit our Privacy Policy to learn more. By continuing to use the site, you agree to this use of cookies and data.
  • In Schweiz
  • Länderverzeichnis
  • Für 7 Tage
  • Wassertemperatur
  • Wetterkarte
  • Widgets
  • user-avatar
    Anmelden

    Stündliche Wetter Coburg

    Heute, 3 Juni, Mittwoch

    Zeit Temperatur Niederschläge Wind Luftdruck Luftfeuchtigkeit
    00:00 +14°C° 0.1 mm 1 m/S 731 mmHg 84%
    01:00 +12°C° 0.1 mm 0 m/S 731 mmHg 85%
    02:00 +12°C° 0.1 mm 0 m/S 731 mmHg 85%
    03:00 +11°C° 0.1 mm 0 m/S 730 mmHg 86%
    04:00 +11°C° 0.1 mm 0 m/S 729 mmHg 87%
    05:00 +13°C° 0 mm 1 m/S 729 mmHg 83%
    06:00 +15°C° 0 mm 1 m/S 729 mmHg 80%
    07:00 +16°C° 0 mm 1 m/S 729 mmHg 77%
    08:00 +19°C° 0 mm 1 m/S 729 mmHg 69%
    09:00 +22°C° 0 mm 1 m/S 729 mmHg 61%
    10:00 +24°C° 0 mm 1 m/S 728 mmHg 53%
    11:00 +24°C° 0.2 mm 2 m/S 728 mmHg 51%
    12:00 +25°C° 0.2 mm 2 m/S 727 mmHg 49%
    13:00 +25°C° 0.2 mm 3 m/S 727 mmHg 47%
    14:00 +25°C° 0.2 mm 3 m/S 726 mmHg 49%
    15:00 +25°C° 0.2 mm 3 m/S 726 mmHg 51%
    16:00 +24°C° 0.2 mm 2 m/S 725 mmHg 53%
    17:00 +23°C° 0.2 mm 2 m/S 725 mmHg 61%
    18:00 +22°C° 0.2 mm 1 m/S 724 mmHg 69%
    19:00 +20°C° 0.2 mm 1 m/S 724 mmHg 77%
    20:00 +19°C° 0.3 mm 1 m/S 724 mmHg 81%
    21:00 +16°C° 0.3 mm 1 m/S 724 mmHg 86%
    22:00 +14°C° 0.3 mm 1 m/S 724 mmHg 90%
    23:00 +14°C° 0.7 mm 1 m/S 723 mmHg 92%

    Morgen, 4 Juni, Donnerstag

    Zeit Temperatur Niederschläge Wind Luftdruck Luftfeuchtigkeit
    00:00 +14°C° 0.7 mm 1 m/S 723 mmHg 94%
    01:00 +14°C° 0.7 mm 1 m/S 722 mmHg 96%
    02:00 +14°C° 0.1 mm 1 m/S 722 mmHg 96%
    03:00 +14°C° 0.1 mm 1 m/S 722 mmHg 96%
    04:00 +14°C° 0.1 mm 1 m/S 721 mmHg 95%
    05:00 +14°C° 0.3 mm 1 m/S 721 mmHg 96%
    06:00 +14°C° 0.3 mm 1 m/S 721 mmHg 97%
    07:00 +14°C° 0.3 mm 1 m/S 720 mmHg 98%
    08:00 +15°C° 0.3 mm 2 m/S 720 mmHg 95%
    09:00 +16°C° 0.3 mm 2 m/S 720 mmHg 93%
    10:00 +17°C° 0.3 mm 3 m/S 720 mmHg 91%
    11:00 +18°C° 0.4 mm 3 m/S 720 mmHg 84%
    12:00 +19°C° 0.4 mm 3 m/S 719 mmHg 77%
    13:00 +21°C° 0.4 mm 3 m/S 719 mmHg 70%
    14:00 +20°C° 1 mm 3 m/S 719 mmHg 75%
    15:00 +19°C° 1 mm 3 m/S 719 mmHg 81%
    16:00 +18°C° 1 mm 2 m/S 718 mmHg 87%
    17:00 +17°C° 0.8 mm 2 m/S 719 mmHg 89%
    18:00 +16°C° 0.8 mm 2 m/S 719 mmHg 91%
    19:00 +15°C° 0.8 mm 2 m/S 719 mmHg 93%
    20:00 +14°C° 0.2 mm 2 m/S 719 mmHg 94%
    21:00 +13°C° 0.2 mm 2 m/S 719 mmHg 95%
    22:00 +12°C° 0.2 mm 2 m/S 720 mmHg 96%
    23:00 +12°C° 0 mm 2 m/S 720 mmHg 95%

    übermorgen, 5 Juni, Freitag

    Zeit Temperatur Niederschläge Wind Luftdruck Luftfeuchtigkeit
    00:00 +10°C° 0 mm 2 m/S 720 mmHg 95%
    01:00 +11°C° 0 mm 1 m/S 721 mmHg 94%
    02:00 +10°C° 0 mm 1 m/S 721 mmHg 95%
    03:00 +10°C° 0 mm 1 m/S 721 mmHg 96%
    04:00 +9°C° 0 mm 1 m/S 721 mmHg 97%
    05:00 +9°C° 0 mm 1 m/S 722 mmHg 93%
    06:00 +9°C° 0 mm 2 m/S 722 mmHg 90%
    07:00 +10°C° 0 mm 2 m/S 722 mmHg 87%
    08:00 +11°C° 0 mm 3 m/S 722 mmHg 75%
    09:00 +12°C° 0 mm 3 m/S 722 mmHg 64%
    10:00 +14°C° 0 mm 4 m/S 723 mmHg 53%
    11:00 +14°C° 0.1 mm 4 m/S 722 mmHg 56%
    12:00 +14°C° 0.1 mm 4 m/S 722 mmHg 59%
    13:00 +14°C° 0.1 mm 4 m/S 722 mmHg 63%
    14:00 +14°C° 0.5 mm 5 m/S 722 mmHg 69%
    15:00 +14°C° 0.5 mm 5 m/S 721 mmHg 74%
    16:00 +14°C° 0.5 mm 5 m/S 721 mmHg 80%
    17:00 +13°C° 0.9 mm 5 m/S 721 mmHg 85%
    18:00 +10°C° 0.9 mm 5 m/S 722 mmHg 90%
    19:00 +9°C° 0.9 mm 5 m/S 722 mmHg 95%
    20:00 +9°C° 0.4 mm 5 m/S 722 mmHg 96%
    21:00 +10°C° 0.4 mm 4 m/S 723 mmHg 96%
    22:00 +8°C° 0.4 mm 4 m/S 723 mmHg 96%
    23:00 +8°C° 0.4 mm 4 m/S 724 mmHg 96%

    6 Juni, Samstag

    Zeit Temperatur Niederschläge Wind Luftdruck Luftfeuchtigkeit
    00:00 +9°C° 0.4 mm 3 m/S 724 mmHg 96%
    01:00 +9°C° 0.4 mm 3 m/S 724 mmHg 96%
    02:00 +8°C° 0 mm 3 m/S 724 mmHg 96%
    03:00 +8°C° 0 mm 3 m/S 724 mmHg 97%
    04:00 +7°C° 0 mm 3 m/S 724 mmHg 97%
    05:00 +8°C° 0.2 mm 3 m/S 724 mmHg 97%
    06:00 +8°C° 0.2 mm 4 m/S 725 mmHg 96%
    07:00 +10°C° 0.2 mm 4 m/S 725 mmHg 96%
    08:00 +10°C° 0.4 mm 4 m/S 725 mmHg 95%
    09:00 +10°C° 0.4 mm 4 m/S 725 mmHg 94%
    10:00 +11°C° 0.4 mm 4 m/S 726 mmHg 93%
    11:00 +11°C° 0.3 mm 4 m/S 726 mmHg 93%
    12:00 +11°C° 0.3 mm 3 m/S 726 mmHg 93%
    13:00 +11°C° 0.3 mm 3 m/S 726 mmHg 94%
    14:00 +12°C° 0.1 mm 4 m/S 726 mmHg 91%
    15:00 +13°C° 0.1 mm 4 m/S 726 mmHg 87%
    16:00 +14°C° 0.1 mm 5 m/S 726 mmHg 84%
    17:00 +13°C° 0.1 mm 4 m/S 726 mmHg 87%
    18:00 +13°C° 0.1 mm 4 m/S 726 mmHg 90%
    19:00 +12°C° 0.1 mm 4 m/S 726 mmHg 93%
    20:00 +11°C° 0 mm 3 m/S 727 mmHg 93%
    21:00 +11°C° 0 mm 3 m/S 727 mmHg 94%
    22:00 +12°C° 0 mm 2 m/S 727 mmHg 95%
    23:00 +10°C° 0 mm 2 m/S 727 mmHg 95%

    7 Juni, Sonntag

    Zeit Temperatur Niederschläge Wind Luftdruck Luftfeuchtigkeit
    00:00 +10°C° 0 mm 2 m/S 727 mmHg 95%
    01:00 +11°C° 0 mm 1 m/S 727 mmHg 96%
    02:00 +11°C° 0 mm 1 m/S 727 mmHg 96%
    03:00 +11°C° 0 mm 1 m/S 727 mmHg 97%
    04:00 +10°C° 0 mm 1 m/S 727 mmHg 97%
    05:00 +11°C° 0 mm 1 m/S 727 mmHg 95%
    06:00 +13°C° 0 mm 1 m/S 727 mmHg 93%
    07:00 +14°C° 0 mm 1 m/S 727 mmHg 91%
    08:00 +14°C° 0.1 mm 1 m/S 727 mmHg 92%
    09:00 +14°C° 0.1 mm 1 m/S 727 mmHg 93%
    10:00 +14°C° 0.1 mm 1 m/S 727 mmHg 94%
    11:00 +15°C° 0.6 mm 1 m/S 727 mmHg 93%
    12:00 +16°C° 0.6 mm 2 m/S 727 mmHg 91%
    13:00 +16°C° 0.6 mm 3 m/S 728 mmHg 90%
    14:00 +14°C° 2.8 mm 3 m/S 728 mmHg 92%
    15:00 +12°C° 2.8 mm 3 m/S 728 mmHg 93%
    16:00 +10°C° 2.8 mm 3 m/S 729 mmHg 95%
    17:00 +10°C° 0.2 mm 3 m/S 729 mmHg 94%
    18:00 +10°C° 0.2 mm 2 m/S 730 mmHg 93%
    19:00 +10°C° 0.2 mm 2 m/S 730 mmHg 92%
    20:00 +9°C° 0.1 mm 2 m/S 731 mmHg 94%
    21:00 +8°C° 0.1 mm 2 m/S 731 mmHg 96%
    22:00 +8°C° 0.1 mm 2 m/S 732 mmHg 97%
    23:00 +7°C° 0 mm 2 m/S 732 mmHg 97%

    8 Juni, Montag

    Zeit Temperatur Niederschläge Wind Luftdruck Luftfeuchtigkeit
    00:00 +8°C° 0 mm 1 m/S 732 mmHg 98%
    01:00 +7°C° 0 mm 1 m/S 732 mmHg 98%
    02:00 +7°C° 0 mm 1 m/S 732 mmHg 98%
    03:00 +7°C° 0 mm 1 m/S 732 mmHg 98%
    04:00 +6°C° 0 mm 1 m/S 731 mmHg 98%
    05:00 +8°C° 0 mm 1 m/S 731 mmHg 95%
    06:00 +9°C° 0 mm 1 m/S 732 mmHg 92%
    07:00 +10°C° 0 mm 1 m/S 732 mmHg 90%
    08:00 +13°C° 0 mm 2 m/S 732 mmHg 78%
    09:00 +15°C° 0 mm 2 m/S 732 mmHg 66%
    10:00 +17°C° 0 mm 3 m/S 732 mmHg 54%
    11:00 +18°C° 0 mm 3 m/S 732 mmHg 53%
    12:00 +18°C° 0 mm 3 m/S 732 mmHg 51%
    13:00 +19°C° 0 mm 3 m/S 732 mmHg 49%
    14:00 +19°C° 0.1 mm 3 m/S 732 mmHg 49%
    15:00 +19°C° 0.1 mm 4 m/S 732 mmHg 50%
    16:00 +19°C° 0.1 mm 4 m/S 732 mmHg 50%
    17:00 +18°C° 0.1 mm 3 m/S 732 mmHg 59%
    18:00 +17°C° 0.1 mm 3 m/S 732 mmHg 67%
    19:00 +16°C° 0.1 mm 2 m/S 732 mmHg 76%
    20:00 +14°C° 0 mm 2 m/S 732 mmHg 82%
    21:00 +13°C° 0 mm 2 m/S 732 mmHg 87%
    22:00 +11°C° 0 mm 1 m/S 733 mmHg 92%
    23:00 +11°C° 0.1 mm 1 m/S 733 mmHg 93%
    Mehr zeigen